| time (UTC) | temp F | wind direction | speed knots | gust knots | rain 1hr in | rain 24hr in | rain mn in | humidity % | barometer mb |
| 20260506141533 | 63 | 197 | 8.7 | 13.0 | 0.01 | 0.01 | 0.01 | 84 | 1008.7 |
| 20260506140036 | 63 | 226 | 5.2 | 10.4 | 0.01 | 0.01 | 0.01 | 83 | 1008.5 |
| 20260506134540 | 63 | 130 | 7.0 | 11.3 | 0.01 | 0.01 | 0.01 | 82 | 1008.2 |
| 20260506133033 | 63 | 235 | 5.2 | 12.2 | 0.01 | 0.01 | 0.01 | 81 | 1008.3 |
| 20260506131537 | 64 | 203 | 7.8 | 14.8 | 0.00 | 0.00 | 0.00 | 78 | 1008.5 |
| 20260506130033 | 64 | 196 | 7.8 | 12.2 | 0.00 | 0.00 | 0.00 | 77 | 1008.6 |
| 20260506124543 | 65 | 211 | 5.2 | 12.2 | 0.00 | 0.00 | 0.00 | 75 | 1008.5 |
| 20260506123040 | 65 | 215 | 7.0 | 13.9 | 0.00 | 0.00 | 0.00 | 73 | 1008.2 |
| 20260506121557 | 65 | 205 | 7.0 | 17.4 | 0.00 | 0.00 | 0.00 | 72 | 1008.3 |
| 20260506120049 | 65 | 210 | 7.0 | 13.0 | 0.00 | 0.00 | 0.00 | 71 | 1008.4 |
| 20260506114542 | 65 | 235 | 11.3 | 20.0 | 0.00 | 0.00 | 0.00 | 72 | 1008.4 |
| 20260506113040 | 66 | 247 | 8.7 | 15.6 | 0.00 | 0.00 | 0.00 | 71 | 1008.4 |
| 20260506111545 | 66 | 202 | 9.6 | 16.5 | 0.00 | 0.00 | 0.00 | 71 | 1008.2 |
| 20260506110047 | 66 | 224 | 8.7 | 15.6 | 0.00 | 0.00 | 0.00 | 72 | 1008.0 |
| 20260506104543 | 66 | 202 | 7.0 | 13.9 | 0.00 | 0.00 | 0.00 | 72 | 1007.9 |
| 20260506103042 | 66 | 197 | 9.6 | 13.9 | 0.00 | 0.00 | 0.00 | 72 | 1008.2 |
| 20260506101554 | 66 | 201 | 8.7 | 15.6 | 0.00 | 0.00 | 0.00 | 71 | 1008.2 |
| 20260506100047 | 66 | 225 | 7.0 | 14.8 | 0.00 | 0.00 | 0.00 | 71 | 1008.1 |
| 20260506094543 | 66 | 207 | 7.0 | 13.9 | 0.00 | 0.00 | 0.00 | 71 | 1008.0 |
| 20260506093046 | 66 | 173 | 7.0 | 11.3 | 0.00 | 0.00 | 0.00 | 70 | 1007.9 |
| 20260506091538 | 66 | 163 | 6.1 | 11.3 | 0.00 | 0.00 | 0.00 | 70 | 1008.0 |
| 20260506084557 | 66 | 196 | 7.0 | 15.6 | 0.00 | 0.00 | 0.00 | 69 | 1008.2 |
| 20260506083045 | 66 | 208 | 6.1 | 17.4 | 0.00 | 0.00 | 0.00 | 68 | 1008.3 |
| 20260506081548 | 67 | 171 | 8.7 | 16.5 | 0.00 | 0.00 | 0.00 | 68 | 1008.2 |
| 20260506073050 | 68 | 232 | 8.7 | 13.0 | 0.00 | 0.00 | 0.00 | 66 | 1008.3 |
| 20260506071552 | 68 | 151 | 9.6 | 15.6 | 0.00 | 0.00 | 0.00 | 65 | 1008.2 |
| 20260506061549 | 70 | 160 | 4.3 | 15.6 | 0.00 | 0.00 | 0.00 | 61 | 1008.8 |
| 20260506044531 | 72 | 186 | 7.8 | 20.9 | 0.00 | 0.00 | 0.00 | 56 | 1009.1 |
| 20260506043028 | 73 | 171 | 9.6 | 20.9 | 0.00 | 0.00 | 0.00 | 55 | 1008.7 |
| 20260506041544 | 73 | 183 | 9.6 | 22.6 | 0.00 | 0.00 | 0.00 | 54 | 1009.0 |
| 20260506040029 | 73 | 176 | 7.0 | 21.7 | 0.00 | 0.00 | 0.00 | 53 | 1009.0 |
| 20260506034543 | 74 | 197 | 11.3 | 21.7 | 0.00 | 0.00 | 0.00 | 52 | 1009.0 |
| 20260506033029 | 74 | 178 | 5.2 | 13.9 | 0.00 | 0.00 | 0.00 | 52 | 1009.0 |
| 20260506031529 | 73 | 157 | 6.1 | 15.6 | 0.00 | 0.00 | 0.00 | 52 | 1009.0 |
| 20260506030028 | 73 | 100 | 7.8 | 13.9 | 0.00 | 0.00 | 0.00 | 51 | 1009.0 |
| 20260506024529 | 74 | 193 | 8.7 | 15.6 | 0.00 | 0.00 | 0.00 | 50 | 1009.1 |
| 20260506023030 | 74 | 213 | 5.2 | 11.3 | 0.00 | 0.00 | 0.00 | 49 | 1009.3 |
| 20260506021529 | 75 | 134 | 5.2 | 13.9 | 0.00 | 0.00 | 0.00 | 48 | 1009.2 |
| 20260506020028 | 75 | 163 | 2.6 | 13.0 | 0.00 | 0.00 | 0.00 | 46 | 1009.3 |
| 20260506014528 | 76 | 196 | 6.1 | 11.3 | 0.00 | 0.00 | 0.00 | 45 | 1009.2 |
| 20260506013041 | 76 | 174 | 4.3 | 11.3 | 0.00 | 0.00 | 0.00 | 44 | 1009.1 |
| 20260506011531 | 77 | 184 | 4.3 | 11.3 | 0.00 | 0.00 | 0.00 | 42 | 1008.9 |
| 20260506010032 | 77 | 148 | 7.8 | 16.5 | 0.00 | 0.00 | 0.00 | 41 | 1008.7 |
| 20260506004527 | 77 | 200 | 7.8 | 14.8 | 0.00 | 0.00 | 0.00 | 40 | 1008.3 |
| 20260506003030 | 78 | 197 | 7.0 | 18.2 | 0.00 | 0.00 | 0.00 | 39 | 1008.6 |
| 20260506001529 | 78 | 202 | 7.8 | 13.9 | 0.00 | 0.00 | 0.00 | 38 | 1008.5 |
| 20260506000030 | 79 | 202 | 8.7 | 16.5 | 0.00 | 0.00 | 0.00 | 37 | 1008.5 |
| 20260505234529 | 80 | 190 | 7.8 | 14.8 | 0.00 | 0.00 | 0.00 | 36 | 1008.2 |
| 20260505233030 | 80 | 212 | 8.7 | 18.2 | 0.00 | 0.00 | 0.00 | 35 | 1008.0 |
| 20260505231531 | 80 | 182 | 12.2 | 18.2 | 0.00 | 0.00 | 0.00 | 33 | 1007.8 |
| 20260505230027 | 81 | 247 | 8.7 | 19.1 | 0.00 | 0.00 | 0.00 | 32 | 1007.9 |
| 20260505224530 | 82 | 198 | 13.0 | 19.1 | 0.00 | 0.00 | 0.00 | 31 | 1008.4 |
| 20260505223037 | 83 | 206 | 10.4 | 22.6 | 0.00 | 0.00 | 0.00 | 29 | 1008.0 |
| 20260505221528 | 83 | 235 | 13.9 | 21.7 | 0.00 | 0.00 | 0.00 | 28 | 1007.7 |
| 20260505220047 | 83 | 215 | 9.6 | 26.1 | 0.00 | 0.00 | 0.00 | 30 | 1007.8 |
| 20260505214535 | 83 | 232 | 10.4 | 18.2 | 0.00 | 0.00 | 0.00 | 29 | 1008.0 |
| 20260505213033 | 83 | 248 | 11.3 | 20.9 | 0.00 | 0.00 | 0.00 | 28 | 1007.9 |
| 20260505211531 | 84 | 223 | 16.5 | 26.9 | 0.00 | 0.00 | 0.00 | 26 | 1007.7 |
| 20260505210030 | 84 | 237 | 9.6 | 23.5 | 0.00 | 0.00 | 0.00 | 27 | 1007.8 |
| 20260505204530 | 84 | 217 | 14.8 | 28.7 | 0.00 | 0.00 | 0.00 | 26 | 1007.7 |
| 20260505203029 | 85 | 217 | 10.4 | 23.5 | 0.00 | 0.00 | 0.00 | 27 | 1007.8 |
| 20260505201532 | 84 | 199 | 12.2 | 24.3 | 0.00 | 0.00 | 0.00 | 28 | 1007.9 |
| 20260505200039 | 84 | 225 | 19.1 | 29.5 | 0.00 | 0.00 | 0.00 | 27 | 1007.9 |
| 20260505194538 | 84 | 220 | 8.7 | 22.6 | 0.00 | 0.00 | 0.00 | 28 | 1008.1 |
| 20260505193041 | 83 | 201 | 13.0 | 28.7 | 0.00 | 0.00 | 0.00 | 29 | 1008.1 |
| 20260505191537 | 83 | 212 | 13.9 | 27.8 | 0.00 | 0.00 | 0.00 | 28 | 1008.5 |
| 20260505190030 | 83 | 248 | 12.2 | 20.0 | 0.00 | 0.00 | 0.00 | 28 | 1009.1 |
| 20260505184533 | 83 | 252 | 8.7 | 23.5 | 0.00 | 0.00 | 0.00 | 30 | 1009.1 |
| 20260505183036 | 82 | 224 | 17.4 | 30.4 | 0.00 | 0.00 | 0.00 | 31 | 1009.1 |
| 20260505181541 | 82 | 177 | 14.8 | 21.7 | 0.00 | 0.00 | 0.00 | 31 | 1009.2 |
| 20260505180034 | 82 | 182 | 11.3 | 21.7 | 0.00 | 0.00 | 0.00 | 33 | 1009.6 |
| 20260505174533 | 82 | 194 | 10.4 | 24.3 | 0.00 | 0.00 | 0.00 | 34 | 1009.6 |
| 20260505173032 | 81 | 208 | 11.3 | 22.6 | 0.00 | 0.00 | 0.00 | 34 | 1009.7 |
| 20260505171532 | 81 | 198 | 9.6 | 15.6 | 0.00 | 0.00 | 0.00 | 35 | 1009.7 |
| 20260505170034 | 80 | 234 | 7.0 | 13.0 | 0.00 | 0.00 | 0.00 | 37 | 1009.8 |
| 20260505164530 | 80 | 244 | 13.0 | 21.7 | 0.00 | 0.00 | 0.00 | 37 | 1010.2 |
| 20260505163032 | 79 | 250 | 8.7 | 14.8 | 0.00 | 0.00 | 0.00 | 40 | 1010.6 |
| 20260505161542 | 78 | 241 | 12.2 | 20.9 | 0.00 | 0.00 | 0.00 | 40 | 1010.8 |
| 20260505153033 | 78 | 208 | 4.3 | 13.9 | 0.00 | 0.00 | 0.00 | 43 | 1011.2 |
| 20260505151529 | 76 | 240 | 8.7 | 20.9 | 0.00 | 0.00 | 0.00 | 44 | 1011.1 |